Hourly Data Report for September 25, 2017

All times are specified in Local Standard Time (LST). Add 1 hour to adjust for Daylight Saving Time where and when it is observed.

EAST POINT (AUT)
PRINCE EDWARD ISLAND

46°27'36.000" N
61°59'18.000" W
7.70 m
8300418
71412
WEP

Download Data

Hourly Data (September 2017)
Hourly Data Report for September 25, 2017
Temp Definition
°C
Dew Point Temp Definition
°C
Rel Hum Definition
%
Wind Dir Definition
10's deg

Wind Spd Definition
km/h
Visibility Definition
km
Stn Press Definition
kPa
Hmdx Definition


Wind Chill Definition


Weather Definition


TIME
00:00 16.9 15.4 91 28 13   101.48     LegendNANA
01:00 17.0 15.3 90 31 22   101.54     LegendNANA
02:00 16.8 14.4 86 32 23   101.59     LegendNANA
03:00 16.6 14.3 86 33 21   101.61     LegendNANA
04:00 16.4 14.3 87 35 21   101.64     LegendNANA
05:00 16.5 14.0 85 36 20   101.69     LegendNANA
06:00 16.1 14.1 88 1 15   101.76     LegendNANA
07:00 16.6 14.1 85 3 20   101.78     LegendNANA
08:00 17.0 14.6 86 3 17   101.85     LegendNANA
09:00 16.7 13.9 83 5 11   101.87     LegendNANA
10:00 16.9 13.2 78 5 9   101.88     LegendNANA
11:00 17.2 13.0 76 4 8   101.89     LegendNANA
12:00 17.3 13.1 76 2 6   101.88     LegendNANA
13:00 17.5 13.0 75 8 7   101.83     LegendNANA
14:00 18.7 13.3 71 14 5   101.79     LegendNANA
15:00 18.0 13.7 76 16 10   101.73     LegendNANA
16:00 17.9 13.3 74 17 13   101.66     LegendNANA
17:00 17.7 12.6 72 18 11   101.65     LegendNANA
18:00 16.9 13.8 82 18 15   101.59     LegendNANA
19:00 17.7 14.3 81 16 18   101.58     LegendNANA
20:00 18.9 16.6 86 17 23   101.53     LegendNANA
21:00 18.5 16.2 86 18 27   101.49     LegendNANA
22:00 18.4 16.2 87 18 25   101.43     LegendNANA
23:00 18.7 16.3 86 19 25   101.38     LegendNANA

Notes on Data Quality.

Legend

  • E = Estimated
  • M = Missing
  • NA = Not Available
  • ‡ = Partner data that is not subject to review by the National Climate Archives
Date modified: